Flag for Angola Weather past 2 weeks in Cabinda, Angola

Now
73 °F

Passing clouds.


Feels Like: 70 °F
Forecast: 72 / 77 °F
Wind: 5 mph from West

Location: Pointe Airport-Noire

Current Time: Sep 20, 2014 at 1:11:29 AM

Latest Report: Sep 20, 2014 at 12:00 AM


Visibility: 4 mi

Pressure: 29.95 "Hg

Humidity: 94%

Dew point: 72 °F

Location of CabindaLocation

Historic Weather in Cabinda — Graph

°F

Cabinda temperature yesterday

Maximum temperature yesterday: 81 °F (at 11:00 AM)
Minimum temperature yesterday: 72 °F (at 5:00 AM)
Average temperature yesterday: 76 °F

Past Weeks' High & Low Weather Summary

 TemperatureHumidityPressure
High81 °F (Sep 12, 1:00 PM)100% (Sep 5, 2:00 AM)30.07 "Hg (Sep 5, 2:00 AM)
Low66 °F (Sep 6, 6:00 AM)61% (Sep 5, 12:00 PM)29.86 "Hg (Sep 5, 3:00 PM)
Average74 °F84%29.93 "Hg
* Reported Sep 4 11:00 PM — Sep 19 11:00 PM, Cabinda, Weather by CustomWeather, © 2014

Note: Actual official high and low records may vary slightly from our data, if they occured in-between our weather recording intervals... More about our weather records

Advertising

Cabinda weather history for previous 24 hours

 ConditionsComfort  
Time TempWeatherWind HumidityBarometerVisibility
11:00 PM
Sep 19
73 °FPassing clouds.5 mph94%29.98 "Hg4 mi
10:00 PM73 °FPassing clouds.7 mph94%29.98 "Hg4 mi
9:00 PM75 °FPassing clouds.6 mph83%29.95 "Hg4 mi
8:00 PM75 °FPassing clouds.6 mph83%29.95 "Hg4 mi
7:00 PM75 °FPassing clouds.8 mph83%29.89 "Hg4 mi
6:00 PM77 °FMore clouds than sun.8 mph79%29.89 "Hg4 mi
5:00 PM77 °FMore clouds than sun.8 mph79%29.89 "Hg4 mi
4:00 PM77 °FMore clouds than sun.10 mph79%29.89 "Hg4 mi
3:00 PM77 °FOvercast.10 mph79%29.89 "Hg5 mi
2:00 PM79 °FOvercast.12 mph70%29.89 "Hg5 mi
1:00 PM79 °FPartly sunny.13 mph74%29.92 "Hg5 mi
12:00 PM81 °FPartly sunny.12 mph66%29.95 "Hg5 mi
11:00 AM81 °FMore clouds than sun.12 mph66%29.98 "Hg5 mi
10:00 AM77 °FMore clouds than sun.13 mph74%29.98 "Hg5 mi
9:00 AM75 °FMore clouds than sun.9 mph83%29.98 "Hg4 mi
8:00 AM73 °FFog.5 mph89%29.98 "Hg3 mi
7:00 AM73 °FFog.5 mph89%29.95 "Hg2 mi
6:00 AM73 °FDrizzle. Fog.5 mph89%29.95 "Hg2 mi
5:00 AM72 °FMostly cloudy.5 mph100%29.92 "Hg4 mi
4:00 AM75 °FDrizzle. Overcast.7 mph89%29.92 "Hg4 mi
3:00 AM75 °FDrizzle. Overcast.6 mph89%29.92 "Hg4 mi
2:00 AM75 °FDrizzle. Overcast.10 mph89%29.92 "Hg4 mi
1:00 AM75 °FOvercast.8 mph89%29.92 "Hg5 mi
Weather by CustomWeather, © 2014

See weather overviewHow to use our weather pages